Year,Month,Day,Hour,Minute,Value (Times are PST for temperature in C)
2016,05,30,00,00,11.40
2016,05,30,00,01,11.40
2016,05,30,00,02,11.40
2016,05,30,00,03,11.40
2016,05,30,00,04,11.40
2016,05,30,00,05,11.40
2016,05,30,00,06,11.40
2016,05,30,00,07,11.40
2016,05,30,00,08,11.40
2016,05,30,00,09,11.40
2016,05,30,00,10,11.40
2016,05,30,00,11,11.40
2016,05,30,00,12,11.40
2016,05,30,00,13,11.30
2016,05,30,00,14,11.30
2016,05,30,00,15,11.30
2016,05,30,00,16,11.30
2016,05,30,00,17,11.30
2016,05,30,00,18,11.30
2016,05,30,00,19,11.30
2016,05,30,00,20,11.30
2016,05,30,00,21,11.30
2016,05,30,00,22,11.30
2016,05,30,00,23,11.30
2016,05,30,00,24,11.30
2016,05,30,00,25,11.30
2016,05,30,00,26,11.20
2016,05,30,00,27,11.20
2016,05,30,00,28,11.20
2016,05,30,00,29,11.20
2016,05,30,00,30,11.20
2016,05,30,00,31,11.20
2016,05,30,00,32,11.20
2016,05,30,00,33,11.20
2016,05,30,00,34,11.20
2016,05,30,00,35,11.20
2016,05,30,00,36,11.20
2016,05,30,00,37,11.20
2016,05,30,00,38,11.10
2016,05,30,00,39,11.10
2016,05,30,00,40,11.10
2016,05,30,00,41,11.10
2016,05,30,00,42,11.10
2016,05,30,00,43,11.10
2016,05,30,00,44,11.10
2016,05,30,00,45,11.10
2016,05,30,00,46,11.10
2016,05,30,00,47,11.10
2016,05,30,00,48,11.10
2016,05,30,00,49,11.10
2016,05,30,00,50,11.10
2016,05,30,00,51,11.10
2016,05,30,00,52,11.10
2016,05,30,00,53,11.10
2016,05,30,00,54,11.10
2016,05,30,00,55,11.10
2016,05,30,00,56,11.10
2016,05,30,00,57,11.10
2016,05,30,00,58,11.10
2016,05,30,00,59,11.10
2016,05,30,01,00,11.10
2016,05,30,01,01,11.00
2016,05,30,01,02,10.90
2016,05,30,01,03,10.90
2016,05,30,01,04,10.90
2016,05,30,01,05,10.90
2016,05,30,01,06,10.90
2016,05,30,01,07,10.90
2016,05,30,01,08,10.90
2016,05,30,01,09,10.90
2016,05,30,01,10,10.90
2016,05,30,01,11,10.90
2016,05,30,01,12,10.90
2016,05,30,01,13,10.90
2016,05,30,01,14,10.90
2016,05,30,01,15,10.90
2016,05,30,01,16,10.90
2016,05,30,01,17,10.90
2016,05,30,01,18,10.90
2016,05,30,01,19,10.80
2016,05,30,01,20,10.80
2016,05,30,01,21,10.80
2016,05,30,01,22,10.80
2016,05,30,01,23,10.80
2016,05,30,01,24,10.80
2016,05,30,01,25,10.70
2016,05,30,01,26,10.70
2016,05,30,01,27,10.70
2016,05,30,01,28,10.70
2016,05,30,01,29,10.70
2016,05,30,01,30,10.70
2016,05,30,01,31,10.60
2016,05,30,01,32,10.60
2016,05,30,01,33,10.60
2016,05,30,01,34,10.60
2016,05,30,01,35,10.60
2016,05,30,01,36,10.60
2016,05,30,01,37,10.60
2016,05,30,01,38,10.60
2016,05,30,01,39,10.60
2016,05,30,01,40,10.60
2016,05,30,01,41,10.60
2016,05,30,01,42,10.60
2016,05,30,01,43,10.60
2016,05,30,01,44,10.60
2016,05,30,01,45,10.60
2016,05,30,01,46,10.50
2016,05,30,01,47,10.40
2016,05,30,01,48,10.40
2016,05,30,01,49,10.40
2016,05,30,01,50,10.40
2016,05,30,01,51,10.40
2016,05,30,01,52,10.40
2016,05,30,01,53,10.40
2016,05,30,01,54,10.40
2016,05,30,01,55,10.40
2016,05,30,01,56,10.40
2016,05,30,01,57,10.40
2016,05,30,01,58,10.40
2016,05,30,01,59,10.30
2016,05,30,02,00,10.30
2016,05,30,02,01,10.30
2016,05,30,02,02,10.30
2016,05,30,02,03,10.30
2016,05,30,02,04,10.30
2016,05,30,02,05,10.30
2016,05,30,02,06,10.30
2016,05,30,02,07,10.30
2016,05,30,02,08,10.20
2016,05,30,02,09,10.20
2016,05,30,02,10,10.20
2016,05,30,02,11,10.20
2016,05,30,02,12,10.20
2016,05,30,02,13,10.20
2016,05,30,02,14,10.20
2016,05,30,02,15,10.10
2016,05,30,02,16,10.10
2016,05,30,02,17,10.10
2016,05,30,02,18,10.10
2016,05,30,02,19,10.10
2016,05,30,02,20,10.10
2016,05,30,02,21,9.90
2016,05,30,02,22,9.90
2016,05,30,02,23,9.90
2016,05,30,02,24,9.90
2016,05,30,02,25,9.80
2016,05,30,02,26,9.80
2016,05,30,02,27,9.80
2016,05,30,02,28,9.80
2016,05,30,02,29,9.80
2016,05,30,02,30,9.80
2016,05,30,02,31,9.80
2016,05,30,02,32,9.70
2016,05,30,02,33,9.70
2016,05,30,02,34,9.70
2016,05,30,02,35,9.70
2016,05,30,02,36,9.70
2016,05,30,02,37,9.70
2016,05,30,02,38,9.60
2016,05,30,02,39,9.60
2016,05,30,02,40,9.60
2016,05,30,02,41,9.60
2016,05,30,02,42,9.60
2016,05,30,02,43,9.60
2016,05,30,02,44,9.60
2016,05,30,02,45,9.60
2016,05,30,02,46,9.60
2016,05,30,02,47,9.60
2016,05,30,02,48,9.60
2016,05,30,02,49,9.60
2016,05,30,02,50,9.60
2016,05,30,02,51,9.60
2016,05,30,02,52,9.50
2016,05,30,02,53,9.50
2016,05,30,02,54,9.50
2016,05,30,02,55,9.50
2016,05,30,02,56,9.50
2016,05,30,02,57,9.50
2016,05,30,02,58,9.50
2016,05,30,02,59,9.60
2016,05,30,03,00,9.60
2016,05,30,03,01,9.60
2016,05,30,03,02,9.60
2016,05,30,03,03,9.60
2016,05,30,03,04,9.60
2016,05,30,03,05,9.60
2016,05,30,03,06,9.60
2016,05,30,03,07,9.60
2016,05,30,03,08,9.60
2016,05,30,03,09,9.60
2016,05,30,03,10,9.60
2016,05,30,03,11,9.60
2016,05,30,03,12,9.50
2016,05,30,03,13,9.50
2016,05,30,03,14,9.50
2016,05,30,03,15,9.50
2016,05,30,03,16,9.50
2016,05,30,03,17,9.40
2016,05,30,03,18,9.40
2016,05,30,03,19,9.40
2016,05,30,03,20,9.40
2016,05,30,03,21,9.40
2016,05,30,03,22,9.40
2016,05,30,03,23,9.50
2016,05,30,03,24,9.50
2016,05,30,03,25,9.60
2016,05,30,03,26,9.60
2016,05,30,03,27,9.60
2016,05,30,03,28,9.60
2016,05,30,03,29,9.70
2016,05,30,03,30,9.70
2016,05,30,03,31,9.70
2016,05,30,03,32,9.70
2016,05,30,03,33,9.70
2016,05,30,03,34,9.70
2016,05,30,03,35,9.70
2016,05,30,03,36,9.70
2016,05,30,03,37,9.60
2016,05,30,03,38,9.60
2016,05,30,03,39,9.60
2016,05,30,03,40,9.60
2016,05,30,03,41,9.50
2016,05,30,03,42,9.50
2016,05,30,03,43,9.50
2016,05,30,03,44,9.50
2016,05,30,03,45,9.50
2016,05,30,03,46,9.40
2016,05,30,03,47,9.40
2016,05,30,03,48,9.40
2016,05,30,03,49,9.40
2016,05,30,03,50,9.40
2016,05,30,03,51,9.40
2016,05,30,03,52,9.30
2016,05,30,03,53,9.30
2016,05,30,03,54,9.30
2016,05,30,03,55,9.30
2016,05,30,03,56,9.40
2016,05,30,03,57,9.40
2016,05,30,03,58,9.40
2016,05,30,03,59,9.40
2016,05,30,04,00,9.40
2016,05,30,04,01,9.40
2016,05,30,04,02,9.40
2016,05,30,04,03,9.40
2016,05,30,04,04,9.40
2016,05,30,04,05,9.40
2016,05,30,04,06,9.40
2016,05,30,04,07,9.40
2016,05,30,04,08,9.40
2016,05,30,04,09,9.40
2016,05,30,04,10,9.40
2016,05,30,04,11,9.40
2016,05,30,04,12,9.40
2016,05,30,04,13,9.40
2016,05,30,04,14,9.40
2016,05,30,04,15,9.40
2016,05,30,04,16,9.40
2016,05,30,04,17,9.40
2016,05,30,04,18,9.40
2016,05,30,04,19,9.40
2016,05,30,04,20,9.40
2016,05,30,04,21,9.40
2016,05,30,04,22,9.40
2016,05,30,04,23,9.30
2016,05,30,04,24,9.30
2016,05,30,04,25,9.30
2016,05,30,04,26,9.30
2016,05,30,04,27,9.20
2016,05,30,04,28,9.20
2016,05,30,04,29,9.20
2016,05,30,04,30,9.20
2016,05,30,04,31,9.20
2016,05,30,04,32,9.20
2016,05,30,04,33,9.20
2016,05,30,04,34,9.20
2016,05,30,04,35,9.20
2016,05,30,04,36,9.20
2016,05,30,04,37,9.20
2016,05,30,04,38,9.20
2016,05,30,04,39,9.10
2016,05,30,04,40,9.10
2016,05,30,04,41,9.00
2016,05,30,04,42,9.00
2016,05,30,04,43,9.00
2016,05,30,04,44,9.00
2016,05,30,04,45,9.00
2016,05,30,04,46,9.00
2016,05,30,04,47,8.90
2016,05,30,04,48,8.90
2016,05,30,04,49,8.90
2016,05,30,04,50,8.90
2016,05,30,04,51,8.80
2016,05,30,04,52,8.70
2016,05,30,04,53,8.70
2016,05,30,04,54,8.70
2016,05,30,04,55,8.70
2016,05,30,04,56,8.70
2016,05,30,04,57,8.70
2016,05,30,04,58,8.70
2016,05,30,04,59,8.70
2016,05,30,05,00,8.70
2016,05,30,05,01,8.70
2016,05,30,05,02,8.70
2016,05,30,05,03,8.70
2016,05,30,05,04,8.70
2016,05,30,05,05,8.70
2016,05,30,05,06,8.70
2016,05,30,05,07,8.70
2016,05,30,05,08,8.70
2016,05,30,05,09,8.70
2016,05,30,05,10,8.70
2016,05,30,05,11,8.70
2016,05,30,05,12,8.70
2016,05,30,05,13,8.70
2016,05,30,05,14,8.70
2016,05,30,05,15,8.70
2016,05,30,05,16,8.70
2016,05,30,05,17,8.70
2016,05,30,05,18,8.70
2016,05,30,05,19,8.70
2016,05,30,05,20,8.70
2016,05,30,05,21,8.60
2016,05,30,05,22,8.60
2016,05,30,05,23,8.60
2016,05,30,05,24,8.60
2016,05,30,05,25,8.50
2016,05,30,05,26,8.50
2016,05,30,05,27,8.50
2016,05,30,05,28,8.50
2016,05,30,05,29,8.40
2016,05,30,05,30,8.40
2016,05,30,05,31,8.40
2016,05,30,05,32,8.40
2016,05,30,05,33,8.40
2016,05,30,05,34,8.40
2016,05,30,05,35,8.40
2016,05,30,05,36,8.40
2016,05,30,05,37,8.50
2016,05,30,05,38,8.50
2016,05,30,05,39,8.50
2016,05,30,05,40,8.50
2016,05,30,05,41,8.50
2016,05,30,05,42,8.50
2016,05,30,05,43,8.50
2016,05,30,05,44,8.50
2016,05,30,05,45,8.50
2016,05,30,05,46,8.50
2016,05,30,05,47,8.50
2016,05,30,05,48,8.60
2016,05,30,05,49,8.60
2016,05,30,05,50,8.60
2016,05,30,05,51,8.60
2016,05,30,05,52,8.60
2016,05,30,05,53,8.60
2016,05,30,05,54,8.60
2016,05,30,05,55,8.70
2016,05,30,05,56,8.70
2016,05,30,05,57,8.70
2016,05,30,05,58,8.70
2016,05,30,05,59,8.70
2016,05,30,06,00,8.70
2016,05,30,06,01,8.70
2016,05,30,06,02,8.70
2016,05,30,06,03,8.70
2016,05,30,06,04,8.80
2016,05,30,06,05,8.80
2016,05,30,06,06,8.80
2016,05,30,06,07,8.90
2016,05,30,06,08,8.90
2016,05,30,06,09,8.90
2016,05,30,06,10,8.90
2016,05,30,06,11,9.00
2016,05,30,06,12,9.00
2016,05,30,06,13,9.00
2016,05,30,06,14,9.10
2016,05,30,06,15,9.20
2016,05,30,06,16,9.20
2016,05,30,06,17,9.30
2016,05,30,06,18,9.30
2016,05,30,06,19,9.30
2016,05,30,06,20,9.30
2016,05,30,06,21,9.40
2016,05,30,06,22,9.40
2016,05,30,06,23,9.40
2016,05,30,06,24,9.40
2016,05,30,06,25,9.50
2016,05,30,06,26,9.50
2016,05,30,06,27,9.50
2016,05,30,06,28,9.60
2016,05,30,06,29,9.60
2016,05,30,06,30,9.60
2016,05,30,06,31,9.70
2016,05,30,06,32,9.70
2016,05,30,06,33,9.80
2016,05,30,06,34,9.90
2016,05,30,06,35,9.90
2016,05,30,06,36,9.90
2016,05,30,06,37,10.10
2016,05,30,06,38,10.10
2016,05,30,06,39,10.10
2016,05,30,06,40,10.10
2016,05,30,06,41,10.10
2016,05,30,06,42,10.10
2016,05,30,06,43,10.10
2016,05,30,06,44,10.00
2016,05,30,06,45,9.90
2016,05,30,06,46,10.00
2016,05,30,06,47,10.10
2016,05,30,06,48,10.10
2016,05,30,06,49,10.10
2016,05,30,06,50,10.20
2016,05,30,06,51,10.20
2016,05,30,06,52,10.30
2016,05,30,06,53,10.30
2016,05,30,06,54,10.40
2016,05,30,06,55,10.50
2016,05,30,06,56,10.60
2016,05,30,06,57,10.70
2016,05,30,06,58,10.80
2016,05,30,06,59,10.90
2016,05,30,07,00,11.00
2016,05,30,07,01,11.20
2016,05,30,07,02,11.30
2016,05,30,07,03,11.40
2016,05,30,07,04,11.50
2016,05,30,07,05,11.60
2016,05,30,07,06,11.60
2016,05,30,07,07,11.70
2016,05,30,07,08,11.70
2016,05,30,07,09,11.80
2016,05,30,07,10,11.80
2016,05,30,07,11,11.80
2016,05,30,07,12,11.80
2016,05,30,07,13,11.90
2016,05,30,07,14,11.90
2016,05,30,07,15,12.00
2016,05,30,07,16,12.10
2016,05,30,07,17,12.20
2016,05,30,07,18,12.30
2016,05,30,07,19,12.30
2016,05,30,07,20,12.40
2016,05,30,07,21,12.50
2016,05,30,07,22,12.60
2016,05,30,07,23,12.70
2016,05,30,07,24,12.80
2016,05,30,07,25,13.00
2016,05,30,07,26,13.10
2016,05,30,07,27,13.10
2016,05,30,07,28,13.20
2016,05,30,07,29,13.30
2016,05,30,07,30,13.30
2016,05,30,07,31,13.40
2016,05,30,07,32,13.40
2016,05,30,07,33,13.50
2016,05,30,07,34,13.60
2016,05,30,07,35,13.60
2016,05,30,07,36,13.60
2016,05,30,07,37,13.60
2016,05,30,07,38,13.50
2016,05,30,07,39,13.40
2016,05,30,07,40,13.30
2016,05,30,07,41,13.10
2016,05,30,07,42,13.00
2016,05,30,07,43,12.90
2016,05,30,07,44,12.90
2016,05,30,07,45,13.00
2016,05,30,07,46,13.10
2016,05,30,07,47,13.10
2016,05,30,07,48,13.00
2016,05,30,07,49,13.00
2016,05,30,07,50,13.00
2016,05,30,07,51,13.10
2016,05,30,07,52,13.20
2016,05,30,07,53,13.20
2016,05,30,07,54,13.30
2016,05,30,07,55,13.50
2016,05,30,07,56,13.60
2016,05,30,07,57,13.70
2016,05,30,07,58,13.80
2016,05,30,07,59,13.90
2016,05,30,08,00,14.00
2016,05,30,08,01,14.00
2016,05,30,08,02,14.10
2016,05,30,08,03,14.20
2016,05,30,08,04,14.20
2016,05,30,08,05,14.20
2016,05,30,08,06,14.20
2016,05,30,08,07,14.30
2016,05,30,08,08,14.30
2016,05,30,08,09,14.40
2016,05,30,08,10,14.40
2016,05,30,08,11,14.40
2016,05,30,08,12,14.40
2016,05,30,08,13,14.50
2016,05,30,08,14,14.50
2016,05,30,08,15,14.40
2016,05,30,08,16,14.40
2016,05,30,08,17,14.40
2016,05,30,08,18,14.50
2016,05,30,08,19,14.50
2016,05,30,08,20,14.50
2016,05,30,08,21,14.60
2016,05,30,08,22,14.60
2016,05,30,08,23,14.60
2016,05,30,08,24,14.50
2016,05,30,08,25,14.50
2016,05,30,08,26,14.50
2016,05,30,08,27,14.60
2016,05,30,08,28,14.60
2016,05,30,08,29,14.60
2016,05,30,08,30,14.60
2016,05,30,08,31,14.60
2016,05,30,08,32,14.60
2016,05,30,08,33,14.70
2016,05,30,08,34,14.70
2016,05,30,08,35,14.80
2016,05,30,08,36,14.80
2016,05,30,08,37,14.90
2016,05,30,08,38,15.00
2016,05,30,08,39,15.10
2016,05,30,08,40,15.10
2016,05,30,08,41,15.10
2016,05,30,08,42,15.10
2016,05,30,08,43,15.00
2016,05,30,08,44,15.00
2016,05,30,08,45,14.90
2016,05,30,08,46,15.00
2016,05,30,08,47,15.00
2016,05,30,08,48,15.00
2016,05,30,08,49,14.90
2016,05,30,08,50,14.90
2016,05,30,08,51,14.90
2016,05,30,08,52,14.90
2016,05,30,08,53,14.90
2016,05,30,08,54,14.90
2016,05,30,08,55,14.90
2016,05,30,08,56,14.90
2016,05,30,08,57,14.90
2016,05,30,08,58,14.80
2016,05,30,08,59,14.90
2016,05,30,09,00,15.00
2016,05,30,09,01,15.00
2016,05,30,09,02,15.10
2016,05,30,09,03,15.20
2016,05,30,09,04,15.20
2016,05,30,09,05,15.30
2016,05,30,09,06,15.30
2016,05,30,09,07,15.30
2016,05,30,09,08,15.30
2016,05,30,09,09,15.30
2016,05,30,09,10,15.30
2016,05,30,09,11,15.30
2016,05,30,09,12,15.30
2016,05,30,09,13,15.30
2016,05,30,09,14,15.30
2016,05,30,09,15,15.30
2016,05,30,09,16,15.30
2016,05,30,09,17,15.30
2016,05,30,09,18,15.40
2016,05,30,09,19,15.40
2016,05,30,09,20,15.30
2016,05,30,09,21,15.30
2016,05,30,09,22,15.30
2016,05,30,09,23,15.30
2016,05,30,09,24,15.30
2016,05,30,09,25,15.40
2016,05,30,09,26,15.50
2016,05,30,09,27,15.50
2016,05,30,09,28,15.50
2016,05,30,09,29,15.50
2016,05,30,09,30,15.50
2016,05,30,09,31,15.40
2016,05,30,09,32,15.40
2016,05,30,09,33,15.40
2016,05,30,09,34,15.30
2016,05,30,09,35,15.30
2016,05,30,09,36,15.30
2016,05,30,09,37,15.30
2016,05,30,09,38,15.30
2016,05,30,09,39,15.30
2016,05,30,09,40,15.30
2016,05,30,09,41,15.30
2016,05,30,09,42,15.30
2016,05,30,09,43,15.30
2016,05,30,09,44,15.30
2016,05,30,09,45,15.30
2016,05,30,09,46,15.30
2016,05,30,09,47,15.40
2016,05,30,09,48,15.40
2016,05,30,09,49,15.40
2016,05,30,09,50,15.50
2016,05,30,09,51,15.50
2016,05,30,09,52,15.50
2016,05,30,09,53,15.50
2016,05,30,09,54,15.60
2016,05,30,09,55,15.60
2016,05,30,09,56,15.60
2016,05,30,09,57,15.60
2016,05,30,09,58,15.60
2016,05,30,09,59,15.60
2016,05,30,10,00,15.70
2016,05,30,10,01,15.70
2016,05,30,10,02,15.70
2016,05,30,10,03,15.70
2016,05,30,10,04,15.70
2016,05,30,10,05,15.60
2016,05,30,10,06,15.50
2016,05,30,10,07,15.40
2016,05,30,10,08,15.40
2016,05,30,10,09,15.30
2016,05,30,10,10,15.30
2016,05,30,10,11,15.30
2016,05,30,10,12,15.30
2016,05,30,10,13,15.30
2016,05,30,10,14,15.30
2016,05,30,10,15,15.30
2016,05,30,10,16,15.30
2016,05,30,10,17,15.30
2016,05,30,10,18,15.40
2016,05,30,10,19,15.40
2016,05,30,10,20,15.50
2016,05,30,10,21,15.50
2016,05,30,10,22,15.50
2016,05,30,10,23,15.50
2016,05,30,10,24,15.50
2016,05,30,10,25,15.50
2016,05,30,10,26,15.50
2016,05,30,10,27,15.50
2016,05,30,10,28,15.50
2016,05,30,10,29,15.50
2016,05,30,10,30,15.60
2016,05,30,10,31,15.60
2016,05,30,10,32,15.60
2016,05,30,10,33,15.60
2016,05,30,10,34,15.70
2016,05,30,10,35,15.70
2016,05,30,10,36,15.70
2016,05,30,10,37,15.80
2016,05,30,10,38,15.80
2016,05,30,10,39,15.80
2016,05,30,10,40,15.80
2016,05,30,10,41,15.90
2016,05,30,10,42,15.90
2016,05,30,10,43,15.90
2016,05,30,10,44,16.00
2016,05,30,10,45,16.10
2016,05,30,10,46,16.10
2016,05,30,10,47,16.10
2016,05,30,10,48,16.10
2016,05,30,10,49,16.10
2016,05,30,10,50,16.10
2016,05,30,10,51,16.20
2016,05,30,10,52,16.20
2016,05,30,10,53,16.30
2016,05,30,10,54,16.30
2016,05,30,10,55,16.30
2016,05,30,10,56,16.40
2016,05,30,10,57,16.40
2016,05,30,10,58,16.40
2016,05,30,10,59,16.40
2016,05,30,11,00,16.40
2016,05,30,11,01,16.40
2016,05,30,11,02,16.40
2016,05,30,11,03,16.40
2016,05,30,11,04,16.40
2016,05,30,11,05,16.50
2016,05,30,11,06,16.60
2016,05,30,11,07,16.60
2016,05,30,11,08,16.60
2016,05,30,11,09,16.60
2016,05,30,11,10,16.60
2016,05,30,11,11,16.60
2016,05,30,11,12,16.60
2016,05,30,11,13,16.70
2016,05,30,11,14,16.70
2016,05,30,11,15,16.70
2016,05,30,11,16,16.70
2016,05,30,11,17,16.70
2016,05,30,11,18,16.70
2016,05,30,11,19,16.80
2016,05,30,11,20,16.80
2016,05,30,11,21,16.80
2016,05,30,11,22,16.80
2016,05,30,11,23,16.80
2016,05,30,11,24,16.90
2016,05,30,11,25,16.90
2016,05,30,11,26,17.00
2016,05,30,11,27,17.10
2016,05,30,11,28,17.20
2016,05,30,11,29,17.20
2016,05,30,11,30,17.20
2016,05,30,11,31,17.30
2016,05,30,11,32,17.30
2016,05,30,11,33,17.40
2016,05,30,11,34,17.40
2016,05,30,11,35,17.50
2016,05,30,11,36,17.50
2016,05,30,11,37,17.40
2016,05,30,11,38,17.50
2016,05,30,11,39,17.50
2016,05,30,11,40,17.50
2016,05,30,11,41,17.50
2016,05,30,11,42,17.40
2016,05,30,11,43,17.30
2016,05,30,11,44,17.30
2016,05,30,11,45,17.30
2016,05,30,11,46,17.30
2016,05,30,11,47,17.40
2016,05,30,11,48,17.40
2016,05,30,11,49,17.40
2016,05,30,11,50,17.40
2016,05,30,11,51,17.40
2016,05,30,11,52,17.40
2016,05,30,11,53,17.50
2016,05,30,11,54,17.50
2016,05,30,11,55,17.60
2016,05,30,11,56,17.70
2016,05,30,11,57,17.80
2016,05,30,11,58,17.90
2016,05,30,11,59,17.90
2016,05,30,12,00,17.90
2016,05,30,12,01,17.90
2016,05,30,12,02,17.90
2016,05,30,12,03,17.90
2016,05,30,12,04,17.90
2016,05,30,12,05,18.00
2016,05,30,12,06,18.10
2016,05,30,12,07,18.10
2016,05,30,12,08,18.10
2016,05,30,12,09,18.10
2016,05,30,12,10,18.00
2016,05,30,12,11,17.90
2016,05,30,12,12,17.90
2016,05,30,12,13,17.80
2016,05,30,12,14,17.90
2016,05,30,12,15,18.00
2016,05,30,12,16,18.20
2016,05,30,12,17,18.20
2016,05,30,12,18,18.20
2016,05,30,12,19,18.20
2016,05,30,12,20,18.10
2016,05,30,12,21,18.10
2016,05,30,12,22,18.00
2016,05,30,12,23,17.90
2016,05,30,12,24,18.00
2016,05,30,12,25,18.10
2016,05,30,12,26,18.10
2016,05,30,12,27,18.10
2016,05,30,12,28,18.00
2016,05,30,12,29,17.90
2016,05,30,12,30,18.00
2016,05,30,12,31,18.10
2016,05,30,12,32,18.10
2016,05,30,12,33,18.10
2016,05,30,12,34,18.20
2016,05,30,12,35,18.20
2016,05,30,12,36,18.20
2016,05,30,12,37,18.20
2016,05,30,12,38,18.30
2016,05,30,12,39,18.30
2016,05,30,12,40,18.40
2016,05,30,12,41,18.40
2016,05,30,12,42,18.40
2016,05,30,12,43,18.40
2016,05,30,12,44,18.40
2016,05,30,12,45,18.40
2016,05,30,12,46,18.40
2016,05,30,12,47,18.50
2016,05,30,12,48,18.50
2016,05,30,12,49,18.60
2016,05,30,12,50,18.60
2016,05,30,12,51,18.70
2016,05,30,12,52,18.70
2016,05,30,12,53,18.80
2016,05,30,12,54,18.90
2016,05,30,12,55,18.90
2016,05,30,12,56,18.90
2016,05,30,12,57,18.90
2016,05,30,12,58,18.90
2016,05,30,12,59,18.90
2016,05,30,13,00,18.80
2016,05,30,13,01,18.70
2016,05,30,13,02,18.70
2016,05,30,13,03,18.70
2016,05,30,13,04,18.70
2016,05,30,13,05,18.80
2016,05,30,13,06,18.90
2016,05,30,13,07,18.90
2016,05,30,13,08,19.10
2016,05,30,13,09,19.10
2016,05,30,13,10,19.20
2016,05,30,13,11,19.20
2016,05,30,13,12,19.30
2016,05,30,13,13,19.40
2016,05,30,13,14,19.40
2016,05,30,13,15,19.50
2016,05,30,13,16,19.50
2016,05,30,13,17,19.40
2016,05,30,13,18,19.30
2016,05,30,13,19,19.30
2016,05,30,13,20,19.20
2016,05,30,13,21,19.20
2016,05,30,13,22,19.30
2016,05,30,13,23,19.40
2016,05,30,13,24,19.50
2016,05,30,13,25,19.60
2016,05,30,13,26,19.60
2016,05,30,13,27,19.70
2016,05,30,13,28,19.70
2016,05,30,13,29,19.80
2016,05,30,13,30,19.90
2016,05,30,13,31,19.90
2016,05,30,13,32,19.90
2016,05,30,13,33,19.90
2016,05,30,13,34,19.90
2016,05,30,13,35,19.90
2016,05,30,13,36,19.90
2016,05,30,13,37,20.00
2016,05,30,13,38,20.10
2016,05,30,13,39,20.20
2016,05,30,13,40,20.20
2016,05,30,13,41,20.20
2016,05,30,13,42,20.00
2016,05,30,13,43,19.80
2016,05,30,13,44,19.70
2016,05,30,13,45,19.70
2016,05,30,13,46,19.60
2016,05,30,13,47,19.60
2016,05,30,13,48,19.60
2016,05,30,13,49,19.60
2016,05,30,13,50,19.70
2016,05,30,13,51,19.80
2016,05,30,13,52,19.80
2016,05,30,13,53,19.90
2016,05,30,13,54,20.00
2016,05,30,13,55,20.10
2016,05,30,13,56,20.00
2016,05,30,13,57,19.90
2016,05,30,13,58,20.00
2016,05,30,13,59,20.10
2016,05,30,14,00,20.20
2016,05,30,14,01,20.20
2016,05,30,14,02,20.20
2016,05,30,14,03,20.20
2016,05,30,14,04,20.20
2016,05,30,14,05,20.20
2016,05,30,14,06,20.20
2016,05,30,14,07,20.30
2016,05,30,14,08,20.40
2016,05,30,14,09,20.50
2016,05,30,14,10,20.50
2016,05,30,14,11,20.50
2016,05,30,14,12,20.60
2016,05,30,14,13,20.70
2016,05,30,14,14,20.80
2016,05,30,14,15,20.90
2016,05,30,14,16,21.00
2016,05,30,14,17,21.00
2016,05,30,14,18,20.80
2016,05,30,14,19,20.70
2016,05,30,14,20,20.60
2016,05,30,14,21,20.60
2016,05,30,14,22,20.30
2016,05,30,14,23,20.20
2016,05,30,14,24,20.20
2016,05,30,14,25,20.20
2016,05,30,14,26,20.30
2016,05,30,14,27,20.30
2016,05,30,14,28,20.00
2016,05,30,14,29,19.90
2016,05,30,14,30,19.90
2016,05,30,14,31,19.80
2016,05,30,14,32,19.70
2016,05,30,14,33,19.50
2016,05,30,14,34,19.30
2016,05,30,14,35,19.10
2016,05,30,14,36,19.00
2016,05,30,14,37,18.90
2016,05,30,14,38,18.80
2016,05,30,14,39,18.60
2016,05,30,14,40,18.40
2016,05,30,14,41,18.30
2016,05,30,14,42,18.30
2016,05,30,14,43,18.30
2016,05,30,14,44,18.20
2016,05,30,14,45,18.20
2016,05,30,14,46,18.20
2016,05,30,14,47,18.20
2016,05,30,14,48,18.20
2016,05,30,14,49,18.40
2016,05,30,14,50,18.50
2016,05,30,14,51,18.40
2016,05,30,14,52,18.30
2016,05,30,14,53,18.40
2016,05,30,14,54,18.40
2016,05,30,14,55,18.50
2016,05,30,14,56,18.50
2016,05,30,14,57,18.60
2016,05,30,14,58,18.60
2016,05,30,14,59,18.70
2016,05,30,15,00,18.80
2016,05,30,15,01,18.90
2016,05,30,15,02,18.90
2016,05,30,15,03,19.00
2016,05,30,15,04,18.90
2016,05,30,15,05,18.70
2016,05,30,15,06,18.60
2016,05,30,15,07,18.60
2016,05,30,15,08,18.60
2016,05,30,15,09,18.50
2016,05,30,15,10,18.40
2016,05,30,15,11,18.30
2016,05,30,15,12,18.30
2016,05,30,15,13,18.40
2016,05,30,15,14,18.40
2016,05,30,15,15,18.50
2016,05,30,15,16,18.50
2016,05,30,15,17,18.50
2016,05,30,15,18,18.60
2016,05,30,15,19,18.60
2016,05,30,15,20,18.60
2016,05,30,15,21,18.70
2016,05,30,15,22,18.70
2016,05,30,15,23,18.60
2016,05,30,15,24,18.70
2016,05,30,15,25,18.80
2016,05,30,15,26,18.80
2016,05,30,15,27,18.90
2016,05,30,15,28,19.10
2016,05,30,15,29,19.20
2016,05,30,15,30,19.30
2016,05,30,15,31,19.40
2016,05,30,15,32,19.60
2016,05,30,15,33,19.70
2016,05,30,15,34,19.70
2016,05,30,15,35,19.70
2016,05,30,15,36,19.90
2016,05,30,15,37,20.00
2016,05,30,15,38,20.00
2016,05,30,15,39,19.90
2016,05,30,15,40,19.90
2016,05,30,15,41,19.80
2016,05,30,15,42,19.90
2016,05,30,15,43,19.90
2016,05,30,15,44,19.90
2016,05,30,15,45,19.90
2016,05,30,15,46,20.00
2016,05,30,15,47,20.10
2016,05,30,15,48,20.20
2016,05,30,15,49,20.20
2016,05,30,15,50,20.20
2016,05,30,15,51,20.30
2016,05,30,15,52,20.40
2016,05,30,15,53,20.40
2016,05,30,15,54,20.50
2016,05,30,15,55,20.50
2016,05,30,15,56,20.50
2016,05,30,15,57,20.40
2016,05,30,15,58,20.00
2016,05,30,15,59,19.70
2016,05,30,16,00,19.40
2016,05,30,16,01,19.20
2016,05,30,16,02,18.90
2016,05,30,16,03,18.60
2016,05,30,16,04,18.50
2016,05,30,16,05,18.40
2016,05,30,16,06,18.20
2016,05,30,16,07,18.10
2016,05,30,16,08,18.00
2016,05,30,16,09,17.90
2016,05,30,16,10,17.70
2016,05,30,16,11,17.60
2016,05,30,16,12,17.50
2016,05,30,16,13,17.50
2016,05,30,16,14,17.50
2016,05,30,16,15,17.70
2016,05,30,16,16,17.80
2016,05,30,16,17,17.80
2016,05,30,16,18,17.80
2016,05,30,16,19,17.80
2016,05,30,16,20,17.80
2016,05,30,16,21,17.70
2016,05,30,16,22,17.70
2016,05,30,16,23,17.80
2016,05,30,16,24,17.80
2016,05,30,16,25,17.70
2016,05,30,16,26,17.70
2016,05,30,16,27,17.70
2016,05,30,16,28,17.70
2016,05,30,16,29,17.80
2016,05,30,16,30,17.80
2016,05,30,16,31,17.80
2016,05,30,16,32,17.80
2016,05,30,16,33,17.90
2016,05,30,16,34,18.10
2016,05,30,16,35,18.20
2016,05,30,16,36,18.30
2016,05,30,16,37,18.30
2016,05,30,16,38,18.30
2016,05,30,16,39,18.20
2016,05,30,16,40,18.20
2016,05,30,16,41,18.20
2016,05,30,16,42,18.20
2016,05,30,16,43,18.20
2016,05,30,16,44,18.30
2016,05,30,16,45,18.30
2016,05,30,16,46,18.30
2016,05,30,16,47,18.30
2016,05,30,16,48,18.20
2016,05,30,16,49,18.20
2016,05,30,16,50,18.20
2016,05,30,16,51,18.20
2016,05,30,16,52,18.20
2016,05,30,16,53,18.20
2016,05,30,16,54,18.20
2016,05,30,16,55,18.20
2016,05,30,16,56,18.20
2016,05,30,16,57,18.20
2016,05,30,16,58,18.20
2016,05,30,16,59,18.20
2016,05,30,17,00,18.20
2016,05,30,17,01,18.20
2016,05,30,17,02,18.10
2016,05,30,17,03,18.10
2016,05,30,17,04,18.20
2016,05,30,17,05,18.20
2016,05,30,17,06,18.20
2016,05,30,17,07,18.20
2016,05,30,17,08,18.30
2016,05,30,17,09,18.50
2016,05,30,17,10,18.50
2016,05,30,17,11,18.50
2016,05,30,17,12,18.50
2016,05,30,17,13,18.60
2016,05,30,17,14,18.70
2016,05,30,17,15,18.70
2016,05,30,17,16,18.60
2016,05,30,17,17,18.50
2016,05,30,17,18,18.60
2016,05,30,17,19,18.60
2016,05,30,17,20,18.80
2016,05,30,17,21,18.70
2016,05,30,17,22,18.70
2016,05,30,17,23,18.60
2016,05,30,17,24,18.60
2016,05,30,17,25,18.60
2016,05,30,17,26,18.60
2016,05,30,17,27,18.60
2016,05,30,17,28,18.50
2016,05,30,17,29,18.40
2016,05,30,17,30,18.40